Time,TemperatureF,DewpointF,PressureIn,WindDirection,WindDirectionDegrees,WindSpeedMPH,WindSpeedGustMPH,Humidity,HourlyPrecipIn,Conditions,Clouds,dailyrainin,SoftwareType,DateUTC
2013-10-19 00:05:00,48.6,39.0,30.00,North,355,5.0,14.0,69,0.00,,,0.00,weatherlink.com 1.10,2013-10-19 05:05:00,
2013-10-19 00:20:00,48.1,38.0,30.00,NW,304,12.0,17.0,69,0.00,,,0.00,weatherlink.com 1.10,2013-10-19 05:20:00,
2013-10-19 00:35:00,47.4,38.0,30.00,NW,311,5.0,8.0,70,0.00,,,0.00,weatherlink.com 1.10,2013-10-19 05:35:00,
2013-10-19 00:50:00,46.9,38.0,30.00,NNW,348,4.0,12.0,71,0.00,,,0.00,weatherlink.com 1.10,2013-10-19 05:50:00,
2013-10-19 01:05:00,46.4,38.0,30.01,North,11,2.0,11.0,72,0.00,,,0.00,weatherlink.com 1.10,2013-10-19 06:05:00,
2013-10-19 01:20:00,46.0,37.0,30.01,WNW,292,5.0,10.0,72,0.00,,,0.00,weatherlink.com 1.10,2013-10-19 06:20:00,
2013-10-19 01:35:00,45.8,38.0,30.01,NW,310,2.0,12.0,73,0.00,,,0.00,weatherlink.com 1.10,2013-10-19 06:35:00,
2013-10-19 01:50:00,45.2,37.0,30.01,NW,321,3.0,8.0,74,0.00,,,0.00,weatherlink.com 1.10,2013-10-19 06:50:00,
2013-10-19 02:05:00,45.1,37.0,30.01,NNW,343,1.0,7.0,74,0.00,,,0.00,weatherlink.com 1.10,2013-10-19 07:05:00,
2013-10-19 02:20:00,44.9,37.0,30.01,West,277,4.0,8.0,75,0.00,,,0.00,weatherlink.com 1.10,2013-10-19 07:20:00,
2013-10-19 02:35:00,44.9,37.0,30.02,WSW,244,0.0,7.0,74,0.00,,,0.00,weatherlink.com 1.10,2013-10-19 07:35:00,
2013-10-19 02:50:00,44.7,37.0,30.02,NW,306,0.0,9.0,74,0.00,,,0.00,weatherlink.com 1.10,2013-10-19 07:50:00,
2013-10-19 03:05:00,44.8,37.0,30.02,NNW,330,0.0,7.0,74,0.00,,,0.00,weatherlink.com 1.10,2013-10-19 08:05:00,
2013-10-19 03:20:00,44.7,37.0,30.02,North,5,0.0,6.0,74,0.00,,,0.00,weatherlink.com 1.10,2013-10-19 08:20:00,
2013-10-19 03:35:00,44.7,37.0,30.02,NW,317,0.0,6.0,74,0.00,,,0.00,weatherlink.com 1.10,2013-10-19 08:35:00,
2013-10-19 03:50:00,44.6,37.0,30.02,WNW,288,2.0,5.0,75,0.00,,,0.00,weatherlink.com 1.10,2013-10-19 08:50:00,
2013-10-19 04:05:00,44.5,37.0,30.02,WNW,288,2.0,7.0,75,0.00,,,0.00,weatherlink.com 1.10,2013-10-19 09:05:00,
2013-10-19 04:21:00,44.3,37.0,30.03,NNW,348,0.0,6.0,74,0.00,,,0.00,weatherlink.com 1.10,2013-10-19 09:21:00,
2013-10-19 04:36:00,44.1,37.0,30.02,North,350,1.0,6.0,75,0.00,,,0.00,weatherlink.com 1.10,2013-10-19 09:36:00,
2013-10-19 04:51:00,44.0,37.0,30.03,West,269,2.0,7.0,75,0.00,,,0.00,weatherlink.com 1.10,2013-10-19 09:51:00,
2013-10-19 05:06:00,43.8,36.0,30.03,NNW,327,2.0,5.0,75,0.00,,,0.00,weatherlink.com 1.10,2013-10-19 10:06:00,
2013-10-19 05:21:00,43.7,36.0,30.03,NNW,327,0.0,3.0,74,0.00,,,0.00,weatherlink.com 1.10,2013-10-19 10:21:00,
2013-10-19 05:36:00,43.7,36.0,30.03,East,90,1.0,4.0,74,0.00,,,0.00,weatherlink.com 1.10,2013-10-19 10:36:00,
2013-10-19 05:51:00,43.4,36.0,30.03,West,275,1.0,4.0,74,0.00,,,0.00,weatherlink.com 1.10,2013-10-19 10:51:00,
2013-10-19 06:06:00,43.4,36.0,30.04,NW,306,0.0,4.0,74,0.00,,,0.00,weatherlink.com 1.10,2013-10-19 11:06:00,
2013-10-19 06:21:00,43.3,36.0,30.05,East,90,0.0,5.0,74,0.00,,,0.00,weatherlink.com 1.10,2013-10-19 11:21:00,
2013-10-19 06:36:00,43.1,36.0,30.05,NE,40,0.0,4.0,75,0.00,,,0.00,weatherlink.com 1.10,2013-10-19 11:36:00,
2013-10-19 06:51:00,42.7,35.0,30.06,NE,39,2.0,5.0,75,0.00,,,0.00,weatherlink.com 1.10,2013-10-19 11:51:00,
2013-10-19 07:06:00,42.7,36.0,30.06,East,95,0.0,2.0,76,0.00,,,0.00,weatherlink.com 1.10,2013-10-19 12:06:00,
2013-10-19 07:21:00,42.4,35.0,30.06,ENE,65,0.0,5.0,76,0.00,,,0.00,weatherlink.com 1.10,2013-10-19 12:21:00,
2013-10-19 07:36:00,42.3,35.0,30.07,NNE,16,0.0,1.0,76,0.00,,,0.00,weatherlink.com 1.10,2013-10-19 12:36:00,
2013-10-19 07:51:00,42.4,36.0,30.07,ESE,103,0.0,2.0,77,0.00,,,0.00,weatherlink.com 1.10,2013-10-19 12:51:00,
2013-10-19 08:06:00,42.5,35.0,30.07,ESE,112,1.0,3.0,76,0.00,,,0.00,weatherlink.com 1.10,2013-10-19 13:06:00,
2013-10-19 08:21:00,42.5,35.0,30.07,East,98,0.0,3.0,76,0.00,,,0.00,weatherlink.com 1.10,2013-10-19 13:21:00,
2013-10-19 08:36:00,42.8,36.0,30.07,ESE,110,0.0,2.0,76,0.00,,,0.00,weatherlink.com 1.10,2013-10-19 13:36:00,
2013-10-19 08:51:00,42.6,35.0,30.08,ENE,78,0.0,2.0,75,0.00,,,0.00,weatherlink.com 1.10,2013-10-19 13:51:00,
2013-10-19 09:06:00,43.0,36.0,30.08,ESE,107,0.0,7.0,75,0.00,,,0.00,weatherlink.com 1.10,2013-10-19 14:06:00,
2013-10-19 09:21:00,43.2,36.0,30.09,ESE,111,0.0,6.0,75,0.00,,,0.00,weatherlink.com 1.10,2013-10-19 14:21:00,
2013-10-19 09:36:00,43.8,36.0,30.09,East,101,0.0,2.0,74,0.00,,,0.00,weatherlink.com 1.10,2013-10-19 14:36:00,
2013-10-19 09:51:00,43.8,36.0,30.10,ESE,104,0.0,0.0,74,0.00,,,0.00,weatherlink.com 1.10,2013-10-19 14:51:00,
2013-10-19 10:06:00,44.8,36.0,30.10,South,180,2.0,2.0,72,0.00,,,0.00,weatherlink.com 1.10,2013-10-19 15:06:00,
2013-10-19 10:21:00,45.3,36.0,30.10,SW,216,0.0,4.0,71,0.00,,,0.00,weatherlink.com 1.10,2013-10-19 15:21:00,
2013-10-19 10:36:00,46.3,37.0,30.10,SW,221,0.0,3.0,70,0.00,,,0.00,weatherlink.com 1.10,2013-10-19 15:36:00,
2013-10-19 10:51:00,47.0,37.0,30.09,SW,226,0.0,1.0,69,0.00,,,0.00,weatherlink.com 1.10,2013-10-19 15:51:00,
2013-10-19 11:07:00,48.9,38.0,30.09,West,275,2.0,5.0,67,0.00,,,0.00,weatherlink.com 1.10,2013-10-19 16:07:00,
2013-10-19 11:22:00,50.1,38.0,30.09,WNW,298,0.0,3.0,63,0.00,,,0.00,weatherlink.com 1.10,2013-10-19 16:22:00,
2013-10-19 11:37:00,53.3,40.0,30.08,West,263,0.0,5.0,61,0.00,,,0.00,weatherlink.com 1.10,2013-10-19 16:37:00,
2013-10-19 11:52:00,56.0,41.0,30.07,NW,306,0.0,4.0,58,0.00,,,0.00,weatherlink.com 1.10,2013-10-19 16:52:00,
2013-10-19 12:07:00,57.3,41.0,30.07,WNW,287,1.0,5.0,55,0.00,,,0.00,weatherlink.com 1.10,2013-10-19 17:07:00,
2013-10-19 12:22:00,59.5,43.0,30.06,West,275,4.0,6.0,55,0.00,,,0.00,weatherlink.com 1.10,2013-10-19 17:22:00,
2013-10-19 12:37:00,60.1,43.0,30.05,WNW,290,5.0,6.0,54,0.00,,,0.00,weatherlink.com 1.10,2013-10-19 17:37:00,
2013-10-19 12:52:00,62.2,44.0,30.04,WNW,286,2.0,6.0,52,0.00,,,0.00,weatherlink.com 1.10,2013-10-19 17:52:00,
2013-10-19 13:07:00,62.9,44.0,30.03,West,281,0.0,7.0,50,0.00,,,0.00,weatherlink.com 1.10,2013-10-19 18:07:00,
2013-10-19 13:22:00,65.4,45.0,30.02,SE,144,2.0,5.0,48,0.00,,,0.00,weatherlink.com 1.10,2013-10-19 18:22:00,
2013-10-19 13:37:00,66.0,46.0,30.02,NW,324,0.0,5.0,49,0.00,,,0.00,weatherlink.com 1.10,2013-10-19 18:37:00,
2013-10-19 13:52:00,65.6,45.0,30.01,WSW,244,3.0,5.0,48,0.00,,,0.00,weatherlink.com 1.10,2013-10-19 18:52:00,
2013-10-19 14:07:00,67.6,45.0,30.00,ESE,107,0.0,7.0,45,0.00,,,0.00,weatherlink.com 1.10,2013-10-19 19:07:00,
2013-10-19 14:22:00,69.0,45.0,30.00,North,10,0.0,9.0,43,0.00,,,0.00,weatherlink.com 1.10,2013-10-19 19:22:00,
2013-10-19 14:37:00,69.9,47.0,29.98,NNW,348,1.0,5.0,44,0.00,,,0.00,weatherlink.com 1.10,2013-10-19 19:37:00,
2013-10-19 14:52:00,70.6,44.0,29.98,WSW,254,0.0,4.0,39,0.00,,,0.00,weatherlink.com 1.10,2013-10-19 19:52:00,
2013-10-19 15:07:00,71.1,46.0,29.97,SSW,205,1.0,8.0,41,0.00,,,0.00,weatherlink.com 1.10,2013-10-19 20:07:00,
2013-10-19 15:22:00,71.5,46.0,29.96,ENE,78,0.0,7.0,40,0.00,,,0.00,weatherlink.com 1.10,2013-10-19 20:22:00,
2013-10-19 15:37:00,72.5,47.0,29.96,NE,47,6.0,8.0,40,0.00,,,0.00,weatherlink.com 1.10,2013-10-19 20:37:00,
2013-10-19 15:52:00,72.3,47.0,29.95,ESE,113,3.0,7.0,40,0.00,,,0.00,weatherlink.com 1.10,2013-10-19 20:52:00,
2013-10-19 16:07:00,71.8,46.0,29.95,ENE,57,5.0,8.0,40,0.00,,,0.00,weatherlink.com 1.10,2013-10-19 21:07:00,
2013-10-19 16:22:00,71.3,46.0,29.94,ESE,116,0.0,9.0,40,0.00,,,0.00,weatherlink.com 1.10,2013-10-19 21:22:00,
2013-10-19 16:37:00,71.5,46.0,29.94,East,82,2.0,7.0,41,0.00,,,0.00,weatherlink.com 1.10,2013-10-19 21:37:00,
2013-10-19 16:53:00,71.5,46.0,29.94,NE,39,5.0,7.0,40,0.00,,,0.00,weatherlink.com 1.10,2013-10-19 21:53:00,
2013-10-19 17:08:00,71.6,46.0,29.94,NW,314,2.0,7.0,40,0.00,,,0.00,weatherlink.com 1.10,2013-10-19 22:08:00,
2013-10-19 17:23:00,71.5,45.0,29.94,ENE,74,1.0,8.0,39,0.00,,,0.00,weatherlink.com 1.10,2013-10-19 22:23:00,
2013-10-19 17:38:00,70.8,46.0,29.93,NNE,28,1.0,7.0,41,0.00,,,0.00,weatherlink.com 1.10,2013-10-19 22:38:00,
2013-10-19 17:53:00,71.0,46.0,29.93,ESE,109,0.0,6.0,41,0.00,,,0.00,weatherlink.com 1.10,2013-10-19 22:53:00,
2013-10-19 18:08:00,70.1,45.0,29.92,ESE,116,2.0,11.0,41,0.00,,,0.00,weatherlink.com 1.10,2013-10-19 23:08:00,
2013-10-19 18:23:00,69.9,46.0,29.92,ESE,122,5.0,9.0,43,0.00,,,0.00,weatherlink.com 1.10,2013-10-19 23:23:00,
2013-10-19 18:38:00,69.6,46.0,29.92,ESE,121,5.0,10.0,43,0.00,,,0.00,weatherlink.com 1.10,2013-10-19 23:38:00,
2013-10-19 18:53:00,68.5,46.0,29.92,East,100,9.0,11.0,45,0.00,,,0.00,weatherlink.com 1.10,2013-10-19 23:53:00,
2013-10-19 19:08:00,67.2,46.0,29.92,ESE,112,4.0,11.0,47,0.00,,,0.00,weatherlink.com 1.10,2013-10-20 00:08:00,
2013-10-19 19:23:00,65.6,46.0,29.92,ESE,121,5.0,9.0,49,0.00,,,0.00,weatherlink.com 1.10,2013-10-20 00:23:00,
2013-10-19 19:38:00,64.4,46.0,29.93,ESE,115,3.0,8.0,52,0.00,,,0.00,weatherlink.com 1.10,2013-10-20 00:38:00,
2013-10-19 19:53:00,63.3,46.0,29.93,SE,128,2.0,5.0,54,0.00,,,0.00,weatherlink.com 1.10,2013-10-20 00:53:00,
2013-10-19 20:08:00,62.3,46.0,29.94,East,100,6.0,7.0,56,0.00,,,0.00,weatherlink.com 1.10,2013-10-20 01:08:00,
2013-10-19 20:23:00,61.5,47.0,29.94,ESE,121,3.0,4.0,59,0.00,,,0.00,weatherlink.com 1.10,2013-10-20 01:23:00,
2013-10-19 20:38:00,60.8,47.0,29.95,ESE,119,0.0,4.0,60,0.00,,,0.00,weatherlink.com 1.10,2013-10-20 01:38:00,
2013-10-19 20:53:00,60.2,47.0,29.95,SE,138,2.0,5.0,62,0.00,,,0.00,weatherlink.com 1.10,2013-10-20 01:53:00,
2013-10-19 21:08:00,59.8,47.0,29.95,ESE,112,3.0,8.0,63,0.00,,,0.00,weatherlink.com 1.10,2013-10-20 02:08:00,
2013-10-19 21:23:00,59.9,47.0,29.95,SE,128,6.0,9.0,62,0.00,,,0.00,weatherlink.com 1.10,2013-10-20 02:23:00,
2013-10-19 21:38:00,59.3,47.0,29.95,SE,129,0.0,5.0,64,0.00,,,0.00,weatherlink.com 1.10,2013-10-20 02:38:00,
2013-10-19 21:53:00,58.2,47.0,29.95,SE,125,0.0,5.0,66,0.00,,,0.00,weatherlink.com 1.10,2013-10-20 02:53:00,
2013-10-19 22:08:00,57.6,47.0,29.96,ESE,119,3.0,8.0,67,0.00,,,0.00,weatherlink.com 1.10,2013-10-20 03:08:00,
2013-10-19 22:23:00,57.1,47.0,29.96,ESE,115,4.0,5.0,68,0.00,,,0.00,weatherlink.com 1.10,2013-10-20 03:23:00,
2013-10-19 22:38:00,56.8,46.0,29.96,ESE,117,5.0,9.0,68,0.00,,,0.00,weatherlink.com 1.10,2013-10-20 03:38:00,
2013-10-19 22:53:00,56.5,46.0,29.96,ESE,113,4.0,6.0,69,0.00,,,0.00,weatherlink.com 1.10,2013-10-20 03:53:00,
2013-10-19 23:08:00,56.6,46.0,29.96,ESE,113,1.0,4.0,68,0.00,,,0.00,weatherlink.com 1.10,2013-10-20 04:08:00,
2013-10-19 23:23:00,56.5,46.0,29.96,ESE,111,0.0,0.0,68,0.00,,,0.00,weatherlink.com 1.10,2013-10-20 04:23:00,
2013-10-19 23:38:00,56.8,46.0,29.96,ESE,111,0.0,0.0,67,0.00,,,0.00,weatherlink.com 1.10,2013-10-20 04:38:00,
2013-10-19 23:53:00,57.3,46.0,29.95,ESE,111,0.0,1.0,65,0.00,,,0.00,weatherlink.com 1.10,2013-10-20 04:53:00,